Appleton, MN

7:30 PM CDT on June 25, 2017 (GMT -0500)
Appleton Municipal

Weather History for KAQP - December, 2012

Change the Weather History Date:

Thursday, December 27, 2012

  Actual Average Record
Temperature  
Mean Temperature 10 °F -  
Max Temperature 17 °F 20 °F 46 °F (2003)
Min Temperature 3 °F 6 °F -7 °F (1996)
Degree Days  
Heating Degree Days 55    
Moisture  
Dew Point 9 °F    
Average Humidity 83    
Maximum Humidity 93    
Minimum Humidity 73    
Precipitation  
Precipitation 0.00 in - - ()
Sea Level Pressure  
Sea Level Pressure 30.17 in    
Wind  
Wind Speed 4 mph (ESE)    
Max Wind Speed 9 mph    
Max Gust Speed -    
Visibility 6 miles    
Events Snow    
Averages and records for this station are not official NWS values.
T = Trace of Precipitation, MM = Missing Value Source: NWS Daily Summary

Daily Weather History Graph

Daily Weather History Graph

Search for Another Location

Airport or City:

Trip Planner

Search our weather history database for the weather conditions in past years. The results will help you decide how hot, cold, wet, or windy it might be!

Date:

Astronomy

Dec. 27, 2012 Rise Set
Actual Time 8:02 AM CST 4:48 PM CST
Civil Twilight 7:28 AM CST 5:22 PM CST
Nautical Twilight 6:51 AM CST 5:59 PM CST
Astronomical Twilight 6:15 AM CST 6:35 PM CST
Moon 4:34 PM CST (12/27) 7:12 AM CST (12/27)
Length of Visible Light 9h 53m
Length of Day
8h 45m
Full, 100% of the Moon is Illuminated
Dec 27
Full
Dec 28
Full
Jan 4
Last Quarter
Jan 11
New
Jan 18
First Quarter

Hourly Weather History & Observations

Time (CST) Temp. Windchill Dew Point Humidity Pressure Visibility Wind Dir Wind Speed Gust Speed Precip Events Conditions
12:13 AM 3.2 °F - -0.4 °F 85% 30.23 in 10.0 mi Calm Calm - N/A   Overcast
12:33 AM 5.0 °F - 1.4 °F 85% 30.23 in 10.0 mi Calm Calm - N/A   Overcast
12:53 AM 5.0 °F - 1.4 °F 85% 30.23 in 10.0 mi Calm Calm - N/A   Overcast
1:13 AM 5.0 °F - 1.4 °F 85% 30.22 in 10.0 mi Calm Calm - N/A   Overcast
1:33 AM 6.8 °F - 1.4 °F 79% 30.22 in 10.0 mi Calm Calm - N/A   Overcast
1:53 AM 6.8 °F - 1.4 °F 79% 30.22 in 10.0 mi Calm Calm - N/A   Overcast
2:14 AM 6.8 °F -0.1 °F 1.4 °F 79% 30.22 in 10.0 mi East 3.5 mph - N/A   Overcast
2:34 AM 6.8 °F - 3.2 °F 85% 30.22 in 10.0 mi Calm Calm - N/A   Overcast
2:53 AM 6.8 °F - 3.2 °F 85% 30.22 in 10.0 mi Calm Calm - N/A   Overcast
3:13 AM 6.8 °F -0.1 °F 3.2 °F 85% 30.21 in 10.0 mi East 3.5 mph - N/A   Overcast
3:33 AM 8.6 °F 2.0 °F 3.2 °F 79% 30.21 in 10.0 mi East 3.5 mph - N/A   Overcast
3:53 AM 8.6 °F 0.1 °F 3.2 °F 79% 30.20 in 10.0 mi East 4.6 mph - N/A   Overcast
4:33 AM 8.6 °F 2.0 °F 3.2 °F 79% 30.20 in 10.0 mi ESE 3.5 mph - N/A   Overcast
4:53 AM 8.6 °F 0.1 °F 3.2 °F 79% 30.20 in 10.0 mi ESE 4.6 mph - N/A   Overcast
5:13 AM 8.6 °F 0.1 °F 5.0 °F 85% 30.19 in 10.0 mi East 4.6 mph - N/A   Overcast
5:33 AM 8.6 °F 0.1 °F 5.0 °F 85% 30.20 in 10.0 mi ESE 4.6 mph - N/A   Overcast
5:53 AM 10.4 °F 4.0 °F 5.0 °F 79% 30.19 in 10.0 mi ESE 3.5 mph - N/A   Overcast
6:14 AM 10.4 °F 0.8 °F 6.8 °F 85% 30.19 in 10.0 mi East 5.8 mph - N/A   Overcast
6:33 AM 10.4 °F 0.8 °F 6.8 °F 85% 30.18 in 10.0 mi East 5.8 mph - N/A   Overcast
6:53 AM 10.4 °F 0.8 °F 6.8 °F 85% 30.19 in 10.0 mi ESE 5.8 mph - N/A   Overcast
7:33 AM 12.2 °F 4.3 °F 6.8 °F 79% 30.19 in 10.0 mi ESE 4.6 mph - N/A   Overcast
7:53 AM 12.2 °F 4.3 °F 6.8 °F 79% 30.19 in 10.0 mi ESE 4.6 mph - N/A   Overcast
8:13 AM 12.2 °F 4.3 °F 6.8 °F 79% 30.19 in 10.0 mi ESE 4.6 mph - N/A   Overcast
8:53 AM 12.2 °F 4.3 °F 6.8 °F 79% 30.20 in 10.0 mi East 4.6 mph - N/A   Overcast
9:13 AM 12.2 °F 2.9 °F 6.8 °F 79% 30.20 in 10.0 mi ESE 5.8 mph - N/A   Overcast
9:54 AM 12.2 °F 2.9 °F 8.6 °F 85% 30.20 in 10.0 mi East 5.8 mph - N/A   Overcast
10:13 AM 14.0 °F 2.9 °F 8.6 °F 79% 30.20 in 10.0 mi ESE 8.1 mph - N/A   Overcast
10:33 AM 14.0 °F 2.0 °F 8.6 °F 79% 30.20 in 10.0 mi ESE 9.2 mph - N/A   Overcast
10:53 AM 14.0 °F 2.9 °F 8.6 °F 79% 30.20 in 10.0 mi SE 8.1 mph - N/A   Overcast
11:13 AM 15.8 °F 6.1 °F 8.6 °F 73% 30.20 in 5.0 mi SE 6.9 mph - N/A Snow Light Snow
11:33 AM 15.8 °F 5.1 °F 8.6 °F 73% 30.18 in 5.0 mi SE 8.1 mph - N/A Snow Light Snow
11:53 AM 15.8 °F 5.1 °F 10.4 °F 79% 30.17 in 1.8 mi SE 8.1 mph - N/A Snow Light Snow
12:13 PM 15.8 °F 8.6 °F 10.4 °F 79% 30.16 in 1.5 mi ESE 4.6 mph - N/A Snow Light Snow
12:34 PM 15.8 °F 6.1 °F 10.4 °F 79% 30.15 in 4.0 mi ESE 6.9 mph - N/A Snow Light Snow
12:53 PM 15.8 °F 6.1 °F 10.4 °F 79% 30.15 in 2.0 mi ESE 6.9 mph - N/A Snow Light Snow
1:13 PM 15.8 °F 6.1 °F 10.4 °F 79% 30.14 in 3.0 mi ESE 6.9 mph - N/A Snow Light Snow
1:33 PM 15.8 °F 6.1 °F 12.2 °F 86% 30.13 in 4.0 mi ESE 6.9 mph - N/A Snow Light Snow
1:53 PM 15.8 °F 8.6 °F 12.2 °F 86% 30.13 in 2.5 mi ESE 4.6 mph - N/A Snow Light Snow
2:13 PM 15.8 °F 8.6 °F 12.2 °F 86% 30.13 in 1.2 mi ESE 4.6 mph - N/A Snow Light Snow
2:33 PM 17.6 °F 9.3 °F 12.2 °F 79% 30.13 in 2.5 mi East 5.8 mph - N/A Snow Light Snow
2:53 PM 17.6 °F 8.2 °F 12.2 °F 79% 30.13 in 2.5 mi ESE 6.9 mph - N/A Snow Light Snow
3:14 PM 17.6 °F 8.2 °F 12.2 °F 79% 30.13 in 2.0 mi East 6.9 mph - N/A Snow Light Snow
3:33 PM 17.6 °F 9.3 °F 14.0 °F 86% 30.13 in 2.5 mi East 5.8 mph - N/A Snow Light Snow
3:54 PM 17.6 °F 8.2 °F 12.2 °F 79% 30.13 in 2.5 mi ESE 6.9 mph - N/A Snow Light Snow
4:13 PM 17.6 °F 9.3 °F 14.0 °F 86% 30.13 in 3.0 mi ESE 5.8 mph - N/A Snow Light Snow
4:33 PM 17.6 °F 9.3 °F 14.0 °F 86% 30.13 in 2.0 mi East 5.8 mph - N/A Snow Light Snow
4:53 PM 17.6 °F 9.3 °F 14.0 °F 86% 30.13 in 3.0 mi East 5.8 mph - N/A Snow Light Snow
5:13 PM 17.6 °F 8.2 °F 15.8 °F 93% 30.13 in 2.5 mi East 6.9 mph - N/A Snow Light Snow
5:33 PM 17.6 °F 8.2 °F 15.8 °F 93% 30.14 in 2.5 mi East 6.9 mph - N/A Snow Light Snow
5:53 PM 17.6 °F 8.2 °F 15.8 °F 93% 30.13 in 3.0 mi East 6.9 mph - N/A Snow Light Snow
6:14 PM 17.6 °F 8.2 °F 15.8 °F 93% 30.13 in 3.0 mi East 6.9 mph - N/A Snow Light Snow
6:33 PM 17.6 °F 8.2 °F 14.0 °F 86% 30.13 in 2.5 mi East 6.9 mph - N/A Snow Light Snow
6:53 PM 17.6 °F 9.3 °F 14.0 °F 86% 30.13 in 7.0 mi East 5.8 mph - N/A Snow Light Snow
7:14 PM 17.6 °F 8.2 °F 14.0 °F 86% 30.13 in 3.0 mi East 6.9 mph - N/A Snow Light Snow
7:34 PM 17.6 °F 9.3 °F 14.0 °F 86% 30.13 in 3.0 mi East 5.8 mph - N/A Snow Light Snow
7:53 PM 17.6 °F 9.3 °F 14.0 °F 86% 30.13 in 3.0 mi East 5.8 mph - N/A Snow Light Snow
8:13 PM 17.6 °F 10.7 °F 14.0 °F 86% 30.14 in 4.0 mi East 4.6 mph - N/A Snow Light Snow
8:33 PM 17.6 °F 10.7 °F 14.0 °F 86% 30.13 in 4.0 mi East 4.6 mph - N/A Snow Light Snow
8:53 PM 17.6 °F 10.7 °F 14.0 °F 86% 30.13 in 3.0 mi East 4.6 mph - N/A Snow Light Snow
9:13 PM 17.6 °F 10.7 °F 14.0 °F 86% 30.13 in 3.0 mi East 4.6 mph - N/A Snow Light Snow
9:33 PM 17.6 °F 9.3 °F 14.0 °F 86% 30.13 in 1.8 mi East 5.8 mph - N/A Snow Light Snow
9:53 PM 17.6 °F 9.3 °F 14.0 °F 86% 30.13 in 2.0 mi East 5.8 mph - N/A Snow Light Snow
10:13 PM 17.6 °F 10.7 °F 14.0 °F 86% 30.13 in 1.8 mi East 4.6 mph - N/A Snow Light Snow
10:33 PM 17.6 °F 9.3 °F 14.0 °F 86% 30.13 in 1.8 mi East 5.8 mph - N/A Snow Light Snow
10:53 PM 17.6 °F 8.2 °F 14.0 °F 86% 30.13 in 1.5 mi East 6.9 mph - N/A Snow Light Snow
11:33 PM 17.6 °F 8.2 °F 14.0 °F 86% 30.12 in 4.0 mi East 6.9 mph - N/A Snow Light Snow
11:53 PM 15.8 °F 6.1 °F 14.0 °F 93% 30.12 in 5.0 mi East 6.9 mph - N/A Snow Light Snow